Regional Weather Roundup
Issued by NWS Portland, ME

Home | Current Version | Previous Version | Text Only | Print | Product List | Glossary On
Versions: 1 2 3 4 5 6 7 8 9 10 11 12 13 14 15 16 17 18 19 20 21 22 23 24 25 26 27 28 29 30 31 32 33 34 35 36 37 38 39 40 41 42 43 44 45 46 47 48 49 50
000
ASUS41 KGYX 111310
RWRGYX
WEATHER ROUNDUP FOR MAINE AND NEW HAMPSHIRE
NATIONAL WEATHER SERVICE GRAY ME
800 AM EST SUN DEC 11 2016

MEZ002-005-006-010-012-015-018-020-021-024-026-027-029-111400-
MAINE

CITY           SKY/WX    TMP DP  RH WIND       PRES   REMARKS
PORTLAND       CLEAR     13   6  74 W3        30.50R
SANFORD          N/A      7   4  87 W3        30.49R
BAR HARBOR     CLEAR     16  10  77 W3        30.47R
WISCASSET      CLEAR      8   4  83 CALM      30.50R
ROCKLAND       CLEAR     11   8  88 W3        30.48R
FRYEBURG       CLEAR      1  -3  83 CALM      30.46R
LEWISTONAUBURN CLEAR      3   0  87 CALM      30.48R
AUGUSTA        CLEAR     11   6  81 CALM      30.46R
WATERVILLE     CLEAR      8   6  92 CALM      30.43R
BANGOR         CLEAR     10   6  84 SW3       30.46R
GREENVILLE       N/A      8   5  87 CALM      30.29R
MILLINOCKET    CLEAR      4   1  88 CALM      30.41R
HOULTON        CLEAR     -2  -5  87 CALM      30.35R
PRESQUE ISLE   CLEAR     -4  -7  87 CALM      30.35R
FRENCHVILLE    CLEAR      5  -1  76 W8        30.28R
CARIBOU        CLEAR      3  -2  79 SW5       30.32R
$$

NHZ002-005-008-009-011-012-014-111400-
NEW HAMPSHIRE

CITY           SKY/WX    TMP DP  RH WIND       PRES   REMARKS
PORTSMOUTH     PTCLDY    13   8  82 SW1       30.50R
ROCHESTER      CLEAR     11   5  77 CALM      30.47R
NASHUA         CLEAR      8   4  83 NW3       30.52
MANCHESTER     CLEAR     10   5  80 S3        30.49R
CONCORD        CLEAR      6   1  80 CALM      30.49R
LACONIA        MOCLDY    10   7  87 W3        30.48
PLYMOUTH       SNOW      -1  -4  87 CALM      30.49R VSB 1/2
BERLIN         PTCLDY    -4 -10  75 CALM      30.39R
WHITEFIELD     CLEAR     -3  -9  75 CALM      30.42R
JAFFREY        CLEAR      6   1  80 CALM      30.43R
KEENE          CLEAR      4   1  88 CALM      30.50R
LEBANON        CLEAR      3  -2  79 CALM      30.47R
MT WASHINGTON  FOG       -6  -6 100 W40         N/A  VSB 1/8 WCI -37
$$

VTZ005-007-008-111400-
VERMONT

CITY           SKY/WX    TMP DP  RH WIND       PRES   REMARKS
ST JOHNSBURY     N/A      1  -4  79 MISG      30.45R
MONTPELIER     CLOUDY     2   1  96 E3        30.44R
BURLINGTON     MOCLDY    15  10  80 SE3       30.45R
$$

MAZ007-012-024-CTZ003-RIZ002-NYZ038-NYZ072-111400-
SOUTHERN NEW ENGLAND AND NY

CITY           SKY/WX    TMP DP  RH WIND       PRES   REMARKS
BOSTON         PTCLDY    22  13  68 CALM      30.53R
WORCESTER      CLEAR     18  10  71 W7        30.44R
NANTUCKET      CLEAR     28  13  53 N9        30.53R
PROVIDENCE     PTCLDY    17  12  80 CALM      30.54R
HARTFORD       PTCLDY    14   9  80 CALM      30.52R
ALBANY         PTCLDY    16  12  84 CALM      30.49R
NEW YORK CITY  CLOUDY    31  16  54 NW5       30.55R
$$

ANZ081-ANZ082-ANZ150-NHZ014-MEZ023>029-111400-
COASTAL MARINE OBSERVATIONS

STATION/POSITION TIME  TEMP    WIND        PRES    WAVE
                       AIR SEA DIR/SP/G            HT/PER
                 (UTC) (F)     (DEG/KT/KT) (MB)    (FT/S)
MOUNT DESERT ROC 1300   24                 1031.4R
MATINICUS ROCK   1200   23     300/ 18/ 23 1030.9R
ISLE OF SHOALS   1200   23     280/  9/ 11 1032.4R
JEFFREYS LEDGE   1208      50                N/A     3/ 4
CASHES LEDGE BUO 1250   28 49  290/ 10/ 14 1031.8R   2/ 4
GEORGES BANK BUO 1150   36 48              1029.3    8/ 7
$$

.............KEY..............
   WCI - WIND CHILL
   TC  - TEMPERATURE IN CELSIUS
   VSB - VISIBILITY IN MILES
   HX  - HEAT INDEX
   FAIR- INDICATES FEW OR NO CLOUDS BELOW 12,000 FT, WITH NO
         SIGNIFICANT WEATHER AND/OR OBSTRUCTIONS TO VISIBILITY.





USA.gov is the U.S. government's official web portal to all federal, state and local government web resources and services.